Regional Weather Roundup
Issued by NWS

Home | Current Version | Previous Version | Text Only | Print | Product List | Glossary Off
Versions: 1 2 3 4 5 6 7 8 9 10 11 12 13 14 15 16 17 18 19 20 21 22 23 24 25 26 27 28 29 30 31 32 33 34 35 36 37 38 39 40 41 42 43 44 45 46 47 48 49 50

000
ASUS43 KIND 261609
RWRIN

WEATHER ROUNDUP FOR INDIANA
NATIONAL WEATHER SERVICE INDIANAPOLIS IN
1100 AM EST THU FEB 26 2015

NOTE: "FAIR" INDICATES FEW OR NO CLOUDS BELOW 12,000 FEET WITH NO
SIGNIFICANT WEATHER AND/OR OBSTRUCTIONS TO VISIBILITY.

* - STATION DOES NOT REPORT WEATHER SUCH AS PRECIPITATION OR FOG.

+ - STATION NOT QUALITY CONTROLLED BY THE NATIONAL WEATHER SERVICE.
    USE DATA WITH CAUTION...ESPECIALLY DEWPOINT AND RELATIVE
    HUMIDITY OBSERVATIONS.

INZ001>003-010>013-019-020-261700-
NORTHWEST INDIANA

CITY           SKY/WX    TMP DP  RH WIND       PRES   REMARKS
GARY /AIRPORT/ LGT SNOW  18  10  73 NE9G21    30.20R WCI   6
KNOX *+          N/A     16   0  48 N13       30.16R WCI   2
LA PORTE +     MOSUNNY   16   9  74 N9        30.17R WCI   4
MICHIGAN CITY+ LGT SNOW  14   3  62 NE9       30.20R WCI   2
MONTICELLO +   LGT SNOW  17  11  77 NE10      30.14R WCI   5
RENSSELAER +   PTSUNNY   19  16  86 N10       30.16R WCI   8
VALPARAISO     LGT SNOW  14   7  73 N10       30.17R WCI   1

$$

LMZ046-743>745-261700-
SOUTHERN LAKE MICHIGAN

STATION/POSITION TIME  TEMP WIND        PRES
                       AIR  DIR/SP/G
                 (UTC) (F)  (DEG/KT/KT) (MB)
MICHIGAN CITY    1600   11   20/ 16/ 18   N/A

$$

INZ004-005-014>016-021>024-261700-
NORTH CENTRAL INDIANA

CITY           SKY/WX    TMP DP  RH WIND       PRES   REMARKS
ELKHART        PTSUNNY   14   3  62 N5        30.17R WCI   6
GOSHEN         CLOUDY    13   7  77 NE8       30.15R HAZE    WCI   2
LOGANSPORT +   CLOUDY    18   9  68 NE9       30.15R WCI   6
PERU/GRISSOM   FLURRIES  15   8  72 NE13      30.12R WCI   2
ROCHESTER +    LGT SNOW  21  12  68 E6        30.15R WCI  14
SOUTH BEND     CLOUDY    14   6  70 N10       30.18R WCI   1
WARSAW +       LGT SNOW  16   9  73 NE6       30.14R WCI   7

$$

INZ006>009-017-018-025>027-261700-
NORTHEAST INDIANA

CITY           SKY/WX    TMP DP  RH WIND       PRES   REMARKS
ANGOLA *+      MOSUNNY   10  -2  56 NE9       30.13R WCI  -2
AUBURN +       PTSUNNY   14   5  67 E10       30.14S WCI   1
FORT WAYNE     LGT SNOW  13   5  70 N10       30.13S WCI   0
HUNTINGTON +   CLOUDY    14   3  61 NE8       30.13R WCI   3

$$

INZ028-029-035-036-043>045-051>053-261700-
WEST CENTRAL INDIANA

CITY           SKY/WX    TMP DP  RH WIND       PRES   REMARKS
CRAWFORDSVL +  CLOUDY    17   6  64 NE13      30.12R WCI   3
GREENCASTLE +  CLOUDY    19  10  68 NE10      30.10R WCI   8
LAFAYETTE      LGT SNOW  17  12  80 N12       30.15R WCI   4
TERRE HAUTE    PTSUNNY   22  13  68 NE12      30.12R WCI  10

$$

INZ030>032-037>040-046>048-054>057-064-065-261700-
CENTRAL INDIANA

CITY           SKY/WX    TMP DP  RH WIND       PRES   REMARKS
ANDERSON       MOSUNNY   14   7  73 NE17G29   30.10R HAZE    WCI  -3
CP ATTERBURY + LGT SNOW  21  14  73 N13       30.09R WCI   9
COLUMBUS       LGT SNOW  18  12  79 N13       30.09R FOG     WCI   4
FRANKFORT +    MOSUNNY   17  11  76 N8        30.13R WCI   7
GREENWOOD *+   PTSUNNY   18   9  68 NE10      30.08S WCI   6
INDIANAPOLIS   PTSUNNY   18  10  71 NE14      30.09R WCI   4
-EAGLE CREEK   CLOUDY    16   9  74 N10       30.09R WCI   4
KOKOMO *+      SUNNY     16   7  67 NE10      30.13R WCI   3
MARION +       PTSUNNY   14   6  69 NE10      30.12R WCI   2
MT COMFORT *+  CLOUDY    18   3  53 NE14      30.09R WCI   4
SHELBYVILLE    LGT SNOW  19  10  68 N13       30.08R WCI   6
ZIONSVILLE +   PTSUNNY   16   8  72 NE15      30.10R HAZE    WCI   1

$$

INZ033-034-041-042-049-050-058-059-261700-
EAST CENTRAL INDIANA

CITY           SKY/WX    TMP DP  RH WIND       PRES   REMARKS
MUNCIE         LGT SNOW  14   7  73 NE16      30.10R WCI  -2

$$

INZ060-061-067>069-081>083-085>088-261700-
SOUTHWEST INDIANA

CITY           SKY/WX    TMP DP  RH WIND       PRES   REMARKS
EVANSVILLE     CLOUDY    30  18  60 N8        30.09R WCI  22
HUNTINGBURG *+ MOSUNNY   28  16  59 N9        30.07R WCI  20
WASHINGTON +   CLOUDY    24  15  70 N12       30.10R WCI  13

$$

INZ062-063-066-070>080-084-089>092-261700-
SOUTH CENTRAL AND SOUTHEAST INDIANA

CITY           SKY/WX    TMP DP  RH WIND       PRES   REMARKS
BLOOMINGTON    CLOUDY    22  15  75 NE12      30.06R WCI  10
NORTH VERNON + LGT SNOW  19  14  79 N9        30.06R WCI   9
SEYMOUR +      CLOUDY    21  14  73 N13       30.07S HAZE    WCI   9

$$




USA.gov is the U.S. government's official web portal to all federal, state and local government web resources and services.